Regional Weather Roundup
Issued by NWS

Home | Current Version | Previous Version | Graphics & Text | Print | Product List | Glossary On
Versions: 1 2 3 4 5 6 7 8 9 10 11 12 13 14 15 16 17 18 19 20 21 22 23 24 25 26 27 28 29 30 31 32 33 34 35 36 37 38 39 40 41 42 43 44 45 46 47 48 49 50
000
ASUS43 KBIS 040001
RWRND

NORTH DAKOTA REGIONAL WEATHER ROUNDUP
NATIONAL WEATHER SERVICE BISMARCK ND
600 PM CST TUE MAR 03 2015

NOTE: "FAIR" INDICATES FEW OR NO CLOUDS BELOW 12,000 FEET WITH NO
SIGNIFICANT WEATHER AND/OR OBSTRUCTIONS TO VISIBILITY.


NDZ001>003-009>011-017-040100-
NORTHWEST NORTH DAKOTA

CITY           SKY/WX    TMP DP  RH WIND       PRES   REMARKS
WILLISTON      CLEAR      7  -4  60 NW13      30.01F WCI  -9
6HR MIN TEMP:   7; 6HR MAX TEMP:  11; 6HR PCP: TRACE;

MINOT          PTCLDY     2  -9  60 W24       29.98R WCI -21
MINOT AFB      MOCLDY     2  -5  72 NW23      29.97R WCI -21
$$

NDZ018>021-031>035-040>046-040100-
SOUTHWEST NORTH DAKOTA

CITY           SKY/WX    TMP DP  RH WIND       PRES   REMARKS
BISMARCK       MOCLDY    10  -2  58 NW18G24   30.02R WCI  -8
6HR MIN TEMP:  10; 6HR MAX TEMP:  14; 6HR PCP: TRACE;

DICKINSON      PTCLDY    10  -5  50 W17G26    29.93S WCI  -8
GARRISON         N/A      4  -6  63 NW21      29.98S WCI -17
6HR MIN TEMP:   4; 6HR MAX TEMP:   8;

HETTINGER ARPT PTCLDY    13  -6  42 NW23G31   29.96S WCI  -6
$$

NDZ004>008-012>016-024-026-027-054-040100-
NORTHEAST NORTH DAKOTA

CITY           SKY/WX    TMP DP  RH WIND       PRES   REMARKS
GRAND FORKS    CLOUDY     6  -3  66 W21       29.94R WCI -14
GRND FRKS AFB  MOCLDY     5  -7  58 NW23G29   29.93R WCI -17
DEVILS LAKE    PTCLDY     1  -9  60 NW26G32   29.92R WCI -23
$$

NDZ022-023-025-028>030-036>039-047>053-040100-
SOUTHEAST NORTH DAKOTA

CITY           SKY/WX    TMP DP  RH WIND       PRES   REMARKS
FARGO          FLURRIES   9  -3  58 NW28G35   29.96R WCI -13
6HR MIN TEMP:   9; 6HR MAX TEMP:  15; 6HR PCP: TRACE;

JAMESTOWN      PTCLDY     5  -5  63 NW25G36   29.95S WCI -18
$$




USA.gov is the U.S. government's official web portal to all federal, state and local government web resources and services.